Lid_Strength_Index
4 4 4 4 4 4 4 4 4 5 5 5 5 6 6 5 5 9 11 7 5 4 5 8 6 5 4 4 3 3 8 10 9 10 8 8 9 6 6 6 5 5 7 8 9
3 4 4 4 4 4 4 4 4 4 4 5 5 6 5 7 9 11 6 4 4 4 9 8 7 5 6 6 5 6 8 9 10 10 10 10 9 9 10 10 9 8 8 9 9
3 3 3 3 3 3 3 3 3 3 3 4 4 6 7 6 10 11 5 4 5 5 8 8 7 7 9 7 8 8 8 9 11 11 12 12 12 11 12 12 10 11 11 10 9
3 3 3 3 3 3 3 3 3 3 3 3 4 6 7 8 14 10 5 5 4 7 8 9 9 10 10 11 10 11 11 11 12 13 13 13 12 12 12 11 10 11 10 10 10
3 3 3 3 3 3 3 3 3 3 3 3 4 8 8 11 13 9 5 6 8 8 10 10 11 10 12 12 11 12 13 13 13 13 13 12 12 13 12 10 10 10 10 10 9
3 3 3 3 3 3 3 3 4 4 4 4 5 4 9 14 10 8 9 9 9 9 10 10 11 10 12 12 12 12 13 13 13 12 12 13 12 11 11 10 10 10 10 10 9
3 3 3 3 3 4 4 4 4 4 4 5 6 9 11 13 9 9 9 10 9 10 11 10 10 10 11 13 12 13 14 13 13 13 13 12 13 13 11 10 11 11 10 9 9
3 3 4 4 4 4 4 4 5 5 5 6 6 8 13 10 8 9 9 10 9 9 10 9 9 11 12 12 13 13 13 14 13 13 12 12 14 12 11 11 11 11 10 10 9
4 4 4 4 4 5 5 5 5 6 6 7 9 9 14 9 11 10 9 11 10 10 9 9 9 11 11 13 13 13 14 15 14 14 14 14 13 11 10 11 12 11 10 10 9
4 4 4 4 4 5 5 6 6 6 7 10 10 11 12 13 11 11 9 10 12 10 10 10 10 12 12 13 16 17 16 15 15 13 14 14 14 11 11 12 11 11 10 10 10
3 4 4 4 5 6 6 7 8 9 10 14 14 14 13 11 10 11 10 11 11 11 14 12 13 15 15 15 15 16 16 16 14 14 16 14 13 12 11 11 11 11 11 10 10
4 5 4 5 6 6 6 10 11 10 14 13 13 13 13 12 14 12 10 12 12 15 14 13 16 15 15 15 15 16 16 15 14 15 16 15 15 12 11 11 11 11 10 10 10
5 6 6 6 7 7 9 10 9 9 13 15 14 14 14 12 15 15 12 13 14 15 15 15 16 15 16 15 16 15 17 17 18 15 14 16 14 13 12 11 11 10 10 9 10
6 6 7 8 9 10 11 10 9 9 15 16 15 14 13 13 15 13 12 14 14 16 16 16 16 16 16 16 16 17 16 16 17 17 17 15 17 12 12 12 11 10 10 10 10
6 7 7 9 10 12 12 10 10 10 18 17 16 13 14 15 15 15 13 13 16 16 15 17 17 17 16 17 15 16 15 16 17 17 18 17 18 13 13 13 12 11 10 10 9
6 7 7 8 9 11 10 10 11 14 17 16 17 17 16 15 16 14 14 13 14 16 16 17 15 15 16 15 15 15 15 16 17 17 18 17 17 15 13 13 12 10 10 10 9
6 7 7 8 10 9 10 11 15 16 17 16 16 17 17 17 17 16 16 16 16 16 16 17 17 16 16 17 15 15 16 16 16 17 17 17 18 15 12 11 11 11 10 10 9
7 7 8 8 8 9 10 12 17 16 16 19 18 18 18 18 17 17 17 16 17 17 16 17 17 17 17 17 19 17 17 17 20 19 18 16 19 14 11 10 10 10 10 10 9
7 6 6 8 8 9 11 16 15 15 16 18 18 18 16 19 18 18 17 16 16 17 16 17 17 17 17 16 16 17 17 17 19 21 22 17 15 12 11 11 11 10 10 10 10
7 7 8 8 9 9 14 14 13 15 16 16 15 16 15 17 18 17 16 16 17 16 17 17 17 18 17 16 16 17 15 18 18 21 21 17 16 15 12 11 11 11 11 11 10
8 11 9 8 9 12 15 14 15 16 15 16 15 17 15 16 16 15 14 15 15 17 17 17 18 18 18 19 17 19 18 19 19 19 20 21 16 12 12 11 12 11 10 10 10
8 14 10 9 14 15 15 15 17 16 15 16 16 15 16 16 16 17 15 16 14 15 18 16 16 19 16 17 17 17 17 17 18 20 19 20 19 11 11 12 12 11 10 10 9
12 12 10 10 15 15 16 17 17 16 16 15 16 15 16 17 16 16 17 16 15 15 17 17 18 19 18 19 18 19 18 17 17 18 20 20 17 11 12 12 10 10 10 10 9
12 15 14 12 14 15 16 16 16 15 16 15 15 16 17 17 16 17 18 16 15 15 15 15 17 17 17 17 17 20 19 17 18 19 19 19 16 13 12 11 11 10 10 10 10
12 14 13 18 16 16 15 15 18 18 17 16 17 17 16 18 18 19 17 17 16 15 15 16 20 19 19 18 18 19 19 19 20 18 19 16 15 13 12 12 11 11 11 11 11
14 15 16 14 15 16 16 16 17 17 18 18 18 16 16 17 16 18 17 17 17 16 16 16 20 22 22 19 19 21 19 18 18 18 18 17 17 13 11 11 11 11 11 11 11
10 12 12 15 16 16 15 15 16 15 16 15 16 17 17 16 15 16 15 15 15 17 17 18 19 22 21 21 21 22 20 19 18 17 17 19 15 12 12 12 11 11 11 12 11